| time (UTC) | temp C | wind direction | speed KPH | gust KPH | rain 1hr cm | rain 24hr cm | rain mn cm | humidity % | barometer mb |
| 20260510104518 | 11 | 290 | 0.0 | 0.0 | 0.00 | 0.00 | 0.00 | 87 | 1015.1 |
| 20260510103016 | 11 | 290 | 0.0 | 0.0 | 0.00 | 0.00 | 0.00 | 87 | 1015.2 |
| 20260510101507 | 12 | 290 | 0.0 | 0.0 | 0.00 | 0.00 | 0.00 | 86 | 1015.1 |
| 20260510100015 | 12 | 290 | 0.0 | 0.0 | 0.00 | 0.00 | 0.00 | 86 | 1014.6 |
| 20260510094523 | 12 | 290 | 0.0 | 0.0 | 0.00 | 0.00 | 0.00 | 86 | 1014.6 |
| 20260510093005 | 12 | 290 | 0.0 | 0.0 | 0.00 | 0.00 | 0.00 | 86 | 1014.5 |
| 20260510091516 | 12 | 290 | 0.0 | 0.0 | 0.00 | 0.00 | 0.00 | 86 | 1014.3 |
| 20260510090020 | 12 | 290 | 0.0 | 0.0 | 0.00 | 0.00 | 0.00 | 86 | 1014.2 |
| 20260510084513 | 12 | 290 | 0.0 | 3.2 | 0.00 | 0.00 | 0.00 | 87 | 1014.0 |
| 20260510083018 | 12 | 198 | 0.0 | 0.0 | 0.00 | 0.00 | 0.00 | 87 | 1013.8 |
| 20260510081515 | 12 | 323 | 0.0 | 3.2 | 0.00 | 0.00 | 0.00 | 86 | 1014.0 |
| 20260510080006 | 12 | 194 | 0.0 | 3.2 | 0.00 | 0.00 | 0.00 | 86 | 1014.1 |
| 20260510074504 | 12 | 236 | 1.6 | 4.8 | 0.00 | 0.00 | 0.00 | 85 | 1014.1 |
| 20260510073007 | 12 | 281 | 0.0 | 0.0 | 0.00 | 0.00 | 0.00 | 84 | 1014.2 |
| 20260510071521 | 12 | 281 | 0.0 | 0.0 | 0.00 | 0.00 | 0.00 | 84 | 1014.0 |
| 20260510070030 | 12 | 320 | 0.0 | 0.0 | 0.00 | 0.00 | 0.00 | 82 | 1013.9 |
| 20260510064508 | 12 | 311 | 0.0 | 0.0 | 0.00 | 0.00 | 0.00 | 83 | 1013.9 |
| 20260510063027 | 12 | 340 | 0.0 | 4.8 | 0.00 | 0.00 | 0.00 | 85 | 1013.9 |
| 20260510061516 | 12 | 258 | 0.0 | 0.0 | 0.00 | 0.00 | 0.00 | 85 | 1013.7 |
| 20260510060009 | 12 | 258 | 0.0 | 0.0 | 0.00 | 0.00 | 0.00 | 84 | 1013.7 |
| 20260510054524 | 12 | 258 | 0.0 | 0.0 | 0.00 | 0.00 | 0.00 | 84 | 1013.8 |
| 20260510053033 | 12 | 258 | 0.0 | 0.0 | 0.00 | 0.00 | 0.00 | 84 | 1013.9 |
| 20260510051518 | 13 | 258 | 0.0 | 0.0 | 0.00 | 0.00 | 0.00 | 84 | 1013.9 |
| 20260510050017 | 13 | 258 | 0.0 | 0.0 | 0.00 | 0.00 | 0.00 | 84 | 1013.5 |
| 20260510044511 | 13 | 258 | 0.0 | 0.0 | 0.00 | 0.00 | 0.00 | 83 | 1013.8 |
| 20260510043039 | 13 | 258 | 0.0 | 0.0 | 0.00 | 0.00 | 0.00 | 82 | 1013.6 |
| 20260510041512 | 13 | 258 | 0.0 | 0.0 | 0.00 | 0.00 | 0.00 | 79 | 1013.4 |
| 20260510040033 | 13 | 258 | 0.0 | 0.0 | 0.00 | 0.00 | 0.00 | 78 | 1013.1 |
| 20260510034520 | 14 | 258 | 0.0 | 0.0 | 0.00 | 0.00 | 0.00 | 78 | 1013.1 |
| 20260510033020 | 15 | 258 | 0.0 | 0.0 | 0.00 | 0.00 | 0.00 | 76 | 1013.1 |
| 20260510031521 | 15 | 258 | 0.0 | 0.0 | 0.00 | 0.00 | 0.00 | 75 | 1013.0 |
| 20260510030011 | 15 | 258 | 0.0 | 0.0 | 0.00 | 0.00 | 0.00 | 73 | 1013.0 |
| 20260510024521 | 16 | 258 | 0.0 | 0.0 | 0.00 | 0.00 | 0.00 | 72 | 1012.4 |
| 20260510023025 | 17 | 258 | 0.0 | 0.0 | 0.00 | 0.03 | 0.00 | 67 | 1012.1 |
| 20260510021537 | 17 | 258 | 0.0 | 0.0 | 0.00 | 0.03 | 0.00 | 66 | 1011.8 |
| 20260510020028 | 18 | 258 | 0.0 | 0.0 | 0.00 | 0.03 | 0.00 | 64 | 1011.4 |
| 20260510014532 | 20 | 258 | 0.0 | 0.0 | 0.00 | 0.03 | 0.00 | 60 | 1011.1 |
| 20260510013022 | 21 | 258 | 0.0 | 0.0 | 0.00 | 0.03 | 0.00 | 55 | 1011.0 |
| 20260510011535 | 22 | 258 | 0.0 | 0.0 | 0.00 | 0.03 | 0.00 | 51 | 1010.9 |
| 20260510010026 | 22 | 258 | 0.0 | 0.0 | 0.00 | 0.03 | 0.00 | 46 | 1010.7 |
| 20260510004508 | 23 | 258 | 0.0 | 0.0 | 0.00 | 0.03 | 0.00 | 44 | 1010.6 |
| 20260510003023 | 24 | 258 | 0.0 | 0.0 | 0.00 | 0.03 | 0.00 | 43 | 1010.4 |
| 20260510001505 | 25 | 258 | 0.0 | 0.0 | 0.00 | 0.03 | 0.00 | 43 | 1010.4 |
| 20260510000010 | 25 | 258 | 0.0 | 0.0 | 0.00 | 0.03 | 0.00 | 44 | 1010.4 |
| 20260509234513 | 26 | 258 | 0.0 | 0.0 | 0.00 | 0.03 | 0.00 | 38 | 1010.5 |
| 20260509233033 | 27 | 258 | 0.0 | 0.0 | 0.00 | 0.03 | 0.00 | 35 | 1010.4 |
| 20260509231523 | 27 | 258 | 0.0 | 3.2 | 0.00 | 0.03 | 0.00 | 39 | 1010.6 |
| 20260509230009 | 27 | 248 | 0.0 | 111.0 | 0.00 | 0.03 | 0.00 | 38 | 1010.4 |
| 20260509224511 | 27 | 248 | 1.6 | 8.0 | 0.00 | 0.03 | 0.00 | 37 | 1010.4 |
| 20260509223016 | 27 | 267 | 3.2 | 6.4 | 0.00 | 0.03 | 0.00 | 34 | 1010.4 |
| 20260509221523 | 27 | 298 | 0.0 | 4.8 | 0.00 | 0.03 | 0.00 | 31 | 1010.4 |
| 20260509220021 | 27 | 303 | 1.6 | 9.7 | 0.00 | 0.03 | 0.00 | 31 | 1010.3 |
| 20260509214508 | 27 | 352 | 1.6 | 6.4 | 0.00 | 0.03 | 0.00 | 30 | 1010.4 |
| 20260509213023 | 27 | 240 | 1.6 | 4.8 | 0.00 | 0.03 | 0.00 | 32 | 1010.6 |
| 20260509211528 | 27 | 264 | 3.2 | 14.5 | 0.00 | 0.03 | 0.00 | 33 | 1010.6 |
| 20260509210025 | 28 | 270 | 3.2 | 4.8 | 0.00 | 0.03 | 0.00 | 35 | 1010.4 |
| 20260509204523 | 28 | 97 | 0.0 | 3.2 | 0.00 | 0.03 | 0.00 | 40 | 1010.7 |
| 20260509203016 | 27 | 248 | 1.6 | 4.8 | 0.00 | 0.03 | 0.00 | 36 | 1010.8 |
| 20260509201516 | 27 | 15 | 1.6 | 11.3 | 0.00 | 0.03 | 0.00 | 31 | 1011.1 |
| 20260509200029 | 27 | 296 | 1.6 | 4.8 | 0.00 | 0.03 | 0.00 | 32 | 1011.1 |
| 20260509194513 | 27 | 286 | 3.2 | 8.0 | 0.00 | 0.03 | 0.00 | 33 | 1011.3 |
| 20260509193031 | 27 | 329 | 4.8 | 11.3 | 0.00 | 0.03 | 0.00 | 35 | 1011.4 |
| 20260509191518 | 27 | 252 | 1.6 | 11.3 | 0.00 | 0.03 | 0.00 | 38 | 1011.3 |
| 20260509190019 | 27 | 236 | 0.0 | 9.7 | 0.00 | 0.03 | 0.00 | 38 | 1011.4 |
| 20260509184510 | 27 | 312 | 3.2 | 12.9 | 0.00 | 0.03 | 0.00 | 35 | 1011.5 |
| 20260509183029 | 26 | 208 | 3.2 | 14.5 | 0.00 | 0.03 | 0.00 | 37 | 1011.4 |
| 20260509181502 | 27 | 257 | 0.0 | 6.4 | 0.00 | 0.03 | 0.00 | 41 | 1011.5 |
| 20260509180003 | 26 | 217 | 0.0 | 9.7 | 0.00 | 0.03 | 0.00 | 34 | 1011.7 |
| 20260509174520 | 26 | 262 | 3.2 | 12.9 | 0.00 | 0.03 | 0.00 | 39 | 1011.7 |
| 20260509173007 | 26 | 286 | 4.8 | 16.1 | 0.00 | 0.03 | 0.00 | 41 | 1011.7 |
| 20260509171506 | 26 | 267 | 3.2 | 9.7 | 0.00 | 0.03 | 0.00 | 45 | 1011.9 |
| 20260509170009 | 26 | 332 | 4.8 | 12.9 | 0.00 | 0.03 | 0.00 | 46 | 1011.9 |
| 20260509164521 | 26 | 166 | 3.2 | 11.3 | 0.00 | 0.03 | 0.00 | 47 | 1011.9 |
| 20260509163004 | 25 | 259 | 0.0 | 6.4 | 0.00 | 0.03 | 0.00 | 55 | 1011.8 |
| 20260509161510 | 25 | 237 | 3.2 | 8.0 | 0.00 | 0.03 | 0.00 | 51 | 1011.8 |
| 20260509160013 | 25 | 78 | 0.0 | 3.2 | 0.00 | 0.03 | 0.00 | 51 | 1011.8 |
| 20260509154503 | 24 | 245 | 3.2 | 6.4 | 0.00 | 0.03 | 0.00 | 53 | 1011.7 |
| 20260509153005 | 23 | 275 | 0.0 | 4.8 | 0.00 | 0.03 | 0.00 | 60 | 1011.7 |
| 20260509151503 | 22 | 291 | 4.8 | 9.7 | 0.00 | 0.03 | 0.00 | 57 | 1011.7 |
| 20260509150004 | 22 | 230 | 3.2 | 8.0 | 0.00 | 0.03 | 0.00 | 59 | 1011.8 |
| 20260509144519 | 21 | 204 | 3.2 | 9.7 | 0.00 | 0.03 | 0.00 | 67 | 1011.9 |
| 20260509143007 | 21 | 283 | 1.6 | 4.8 | 0.00 | 0.03 | 0.00 | 70 | 1011.8 |
| 20260509141506 | 19 | 236 | 1.6 | 6.4 | 0.00 | 0.03 | 0.00 | 75 | 1011.7 |
| 20260509140012 | 18 | 291 | 3.2 | 4.8 | 0.00 | 0.03 | 0.00 | 78 | 1011.6 |
| 20260509134514 | 18 | 232 | 1.6 | 4.8 | 0.00 | 0.03 | 0.00 | 79 | 1011.5 |
| 20260509133018 | 17 | 156 | 0.0 | 0.0 | 0.00 | 0.03 | 0.00 | 81 | 1011.5 |
| 20260509131503 | 16 | 32 | 0.0 | 0.0 | 0.00 | 0.03 | 0.00 | 84 | 1011.4 |
| 20260509130011 | 13 | 32 | 0.0 | 0.0 | 0.00 | 0.03 | 0.00 | 88 | 1011.3 |
| 20260509124510 | 12 | 342 | 0.0 | 0.0 | 0.00 | 0.03 | 0.00 | 91 | 1011.5 |
| 20260509123017 | 11 | 342 | 0.0 | 0.0 | 0.00 | 0.03 | 0.00 | 92 | 1011.4 |
| 20260509121513 | 10 | 342 | 0.0 | 0.0 | 0.00 | 0.03 | 0.00 | 93 | 1011.3 |
| 20260509120005 | 8 | 342 | 0.0 | 0.0 | 0.00 | 0.03 | 0.00 | 92 | 1011.2 |
| 20260509114508 | 7 | 342 | 0.0 | 0.0 | 0.00 | 0.03 | 0.00 | 91 | 1010.9 |
| 20260509113015 | 7 | 342 | 0.0 | 0.0 | 0.00 | 0.03 | 0.00 | 91 | 1010.7 |
| 20260509111520 | 7 | 342 | 0.0 | 0.0 | 0.00 | 0.03 | 0.00 | 91 | 1010.6 |
| 20260509110015 | 8 | 342 | 0.0 | 0.0 | 0.00 | 0.03 | 0.00 | 91 | 1010.5 |